TITAN 3C TRANSTAGE DEB, 28837

Orbit data source: Space-Track

TITAN 3C TRANSTAGE DEB, 28837 is space debris in HEO originally from a launch on Tue, 21 Dec 1965 UTC launched from the Air Force Eastern Test Range (AFETR). Debris objects in space refer to the collection of defunct objects orbiting the Earth. Examples of debris include non-operational satellites, rocket bodies, and fragments generated from explosions, collisions, or faulty payload assembly.

Loading next visibility...
Identifier
28837, 1965-108CP
Orbit
HEO
Country
Flag of USUS
Related business
Manufacturer
Unknown
Mission
Spacecraft
Bus & Motor
Unknown
Mass
Unknown
Launch date (UTC)
1965-12-21 (60 years ago)
Launch vehicle
Unknown
Launch site
Air Force Eastern Test Range (AFETR)
Object type
Payload
Rocket body
Debris
Shape & HBR
Unknown shape, 0.1 m
Radar Cross Section
Medium (>0.1 m² and <1 m²)

Expand to show TLE details & history
Last TLE update: 2 weeks ago

TLE from 2 weeks ago
0 TITAN 3C TRANSTAGE DEB
1 28837U 65108CP  26150.74051410 -.00000103  00000-0  00000-0 0  9999
2 28837  25.8424 252.4551 6513885 150.5427   2.4673  2.63340234 25375
Epoch: 2026-05-30T17:46Z
TLE epoch observation values (Epoch: 2026-05-30T17:46:20.418Z)
Latitude
6.41488°
Longitude
-95.74234°
Altitude
1,425.515 km
Speed
9.174 km/s
True Right ascension
03h 56m 22s
True Declination
6° 22' 48"
Sunlit
Object was in daylight at epoch
Visualization orbit readout
Latitude
Unknown
Longitude
Unknown
Altitude
Unknown
Speed
Unknown
Apparent Right ascension
Unknown
Apparent Declination
Unknown
Sunlit
N/A
Visualization observer readout
Local Sidereal Time
02:35:07
Azimuth
Unknown
Elevation
Unknown
Doppler factor
Unknown
Orbital elements
Apogee altitude
30,206.917 km
Perigee altitude
1,345.043 km
Semi-major axis
22,154.117 km
Eccentricity
0.65139
Inclination
25.8424°
RAAN
252.4551°
Arg. of periapsis
150.5427°
True anomaly
15.26038°
Mean anomaly
2.4673°
Eccentric anomaly
7.04437°
Mean motion
0.65821 °/min
Orbital period
546.94 mins
BSTAR
0
Loading maneuver chart data...
Computing Atmospheric mass density...

Documentation

Showing up to 5 results
|